Location: Newark
(45.2500°N, 7.5833°E)
Time: 06:54:12
(UTC+00:00)

A-11 Canister half - Pass Details

Date: 26 January 2020
Orbit: 1524 x 1684 km, 47.3° (Epoch: 20 February)

Event Time Altitude Azimuth Distance (km) Brightness Sun altitude
Rises 15:51:31 0° 213° (SSW) 4,660 13.0 4.7°
Reaches altitude 10° 15:54:43 10° 207° (SSW) 3,682 12.2 4.2°
Maximum altitude 16:03:15 43° 140° (SE) 2,039 9.7 2.9°
Drops below altitude 10° 16:11:59 10° 72° (ENE) 3,762 10.4 1.6°
Sets 16:15:16 0° 67° (ENE) 4,770 10.9 1.1°
